,,�O�C���x[��],����1,�O�C���x[��],����2,���ԉ��x[��],����3,���Ԏ��x[��],����4,�m��2(��󒲎�)���x[��],����5,����[��],����6
2004/7/1,0:00:00,,1,60.9,0,27,0,50.2,0,26.2,0,24.1,0
2004/7/1,0:15:00,,1,59.8,0,27,0,50.9,0,26.2,0,24.2,0
2004/7/1,0:30:00,,1,60.7,0,26.8,0,50.7,0,26.2,0,24.2,0
2004/7/1,0:45:00,,1,60.6,0,26.7,0,50,0,26.2,0,24.3,0
2004/7/1,1:00:00,,1,65.6,0,27.4,0,50.8,0,26.1,0,24.3,0
2004/7/1,1:15:00,,1,69.7,0,27.9,0,55.2,0,26.1,0,24.4,0
2004/7/1,1:30:00,,1,69.7,0,28.2,0,51.7,0,26.1,0,24.4,0
2004/7/1,1:45:00,,1,70.1,0,27.8,0,52.1,0,26.1,0,24.4,0
2004/7/1,2:00:00,,1,70.9,0,27.8,0,51.6,0,26.1,0,24.4,0
2004/7/1,2:15:00,,1,73.1,0,28.1,0,50.5,0,26.1,0,24.4,0
2004/7/1,2:30:00,,1,73.7,0,28.1,0,50.5,0,26.1,0,24.4,0
2004/7/1,2:45:00,,1,75.2,0,28.2,0,52,0,26.1,0,24.4,0
2004/7/1,3:00:00,,1,75.8,0,28.2,0,52.4,0,26,0,24.5,0
2004/7/1,3:15:00,,1,75.5,0,28.3,0,52.6,0,26,0,24.5,0
2004/7/1,3:30:00,,1,74.2,0,28.4,0,52.7,0,26,0,24.6,0
2004/7/1,3:45:00,,1,73.7,0,28.4,0,52.9,0,26,0,24.6,0
2004/7/1,4:00:00,,1,73.7,0,28.4,0,53,0,26,0,24.7,0
2004/7/1,4:15:00,,1,73.2,0,28.4,0,53,0,26,0,24.7,0
2004/7/1,4:30:00,,1,73,0,28.4,0,53,0,26,0,24.8,0
2004/7/1,4:45:00,,1,72.1,0,28.4,0,52.9,0,26,0,24.8,0
2004/7/1,5:00:00,,1,69.8,0,28.5,0,52.8,0,26,0,24.8,0
2004/7/1,5:15:00,,1,67.1,0,28.5,0,52.7,0,26,0,24.9,0
2004/7/1,5:30:00,,1,65.5,0,28.5,0,53.1,0,26,0,24.9,0
2004/7/1,5:45:00,,1,62.9,0,28.6,0,53.4,0,25.9,0,25,0
2004/7/1,6:00:00,,1,62,0,28.7,0,53.4,0,25.9,0,25,0
2004/7/1,6:15:00,,1,59,0,28.8,0,54,0,25.9,0,25.1,0
2004/7/1,6:30:00,,1,54.8,0,28.8,0,53.7,0,25.9,0,25.1,0
2004/7/1,6:45:00,,1,52.2,0,28.9,0,53.8,0,25.9,0,24.5,0
2004/7/1,7:00:00,,1,49.6,0,29,0,44.7,0,25.9,0,24,0
2004/7/1,7:15:00,,1,48.5,0,28.6,0,41.9,0,25.9,0,24.1,0
2004/7/1,7:30:00,,1,46.8,0,28.7,0,42.9,0,25.9,0,24.2,0
2004/7/1,7:45:00,,1,45.1,0,28.7,0,40.3,0,25.8,0,24.2,0
2004/7/1,8:00:00,,1,43.9,0,28.9,0,41.1,0,25.8,0,24.3,0
2004/7/1,8:15:00,,1,42.2,0,29,0,40.9,0,25.8,0,24.3,0
2004/7/1,8:30:00,,1,39.9,0,29.1,0,38,0,25.7,0,23.7,0
2004/7/1,8:45:00,,1,39.6,0,29,0,38.6,0,25.7,0,23.7,0
2004/7/1,9:00:00,,1,37.6,0,29.1,0,39.6,0,25.7,0,23.8,0
2004/7/1,9:15:00,,1,36.2,0,29.1,0,37.3,0,25.6,0,23.9,0
2004/7/1,9:30:00,,1,39.6,0,29,0,39.3,0,25.6,0,23.9,0
2004/7/1,9:45:00,,1,39.1,0,29.1,0,39.4,0,25.6,0,24,0
2004/7/1,10:00:00,,1,38.5,0,29.7,0,38.1,0,25.7,0,24,0
2004/7/1,10:15:00,,1,39.4,0,29.7,0,38.2,0,25.7,0,24.1,0
2004/7/1,10:30:00,,1,38.3,0,29.4,0,39.5,0,25.7,0,24.1,0
2004/7/1,10:45:00,,1,41.1,0,29.4,0,40.3,0,25.7,0,24.2,0
2004/7/1,11:00:00,,1,41.4,0,29.5,0,39.3,0,25.7,0,24.2,0
2004/7/1,11:15:00,,1,41.1,0,29.6,0,39.6,0,25.8,0,24.1,0
2004/7/1,11:30:00,,1,40.8,0,29.5,0,38.5,0,25.8,0,24.2,0
2004/7/1,11:45:00,,1,40.5,0,29.6,0,38.3,0,25.8,0,24.2,0
2004/7/1,12:00:00,,1,39.3,0,29.5,0,38.8,0,25.9,0,24.3,0
2004/7/1,12:15:00,,1,39.2,0,29.5,0,40.4,0,25.9,0,24.3,0
2004/7/1,12:30:00,,1,38,0,29.3,0,43.3,0,25.9,0,24.4,0
2004/7/1,12:45:00,,1,36.6,0,29.3,0,43.9,0,26,0,24.4,0
2004/7/1,13:00:00,,1,37.8,0,29.3,0,44.2,0,26,0,24.5,0
2004/7/1,13:15:00,,1,34.4,0,29.3,0,44.4,0,26,0,24.5,0
2004/7/1,13:30:00,,1,34.5,0,29.3,0,44.4,0,26.1,0,24.5,0
2004/7/1,13:45:00,,1,35.2,0,29.3,0,44.6,0,26.1,0,24.6,0
2004/7/1,14:00:00,,1,34.8,0,29.3,0,44.7,0,26.2,0,24.7,0
2004/7/1,14:15:00,,1,35.5,0,29.4,0,44.7,0,26.2,0,24.7,0
2004/7/1,14:30:00,,1,35.8,0,29.4,0,44.7,0,26.3,0,24.7,0
2004/7/1,14:45:00,,1,35.9,0,29.4,0,44.7,0,26.4,0,24.8,0
2004/7/1,15:00:00,,1,36.1,0,29.5,0,44.9,0,26.5,0,24.8,0
2004/7/1,15:15:00,,1,35.4,0,29.5,0,45.1,0,26.6,0,24.9,0
2004/7/1,15:30:00,,1,36.2,0,29.6,0,45.1,0,26.7,0,24.9,0
2004/7/1,15:45:00,,1,36.3,0,29.6,0,45,0,26.9,0,25,0
2004/7/1,16:00:00,,1,37.1,0,29.6,0,44.9,0,27.1,0,25,0
2004/7/1,16:15:00,,1,37.8,0,29.7,0,44.8,0,27.2,0,25.1,0
2004/7/1,16:30:00,,1,37.1,0,29.7,0,44.8,0,27.4,0,25.1,0
2004/7/1,16:45:00,,1,37.4,0,29.7,0,44.3,0,27.5,0,25.2,0
2004/7/1,17:00:00,,1,44.7,0,29.8,0,44.2,0,27.6,0,25.2,0
2004/7/1,17:15:00,,1,46.9,0,29.8,0,44.5,0,27.7,0,25.3,0
2004/7/1,17:30:00,,1,49.7,0,29.8,0,44.7,0,27.8,0,25.4,0
2004/7/1,17:45:00,,1,50.7,0,29.8,0,44.9,0,27.9,0,25.4,0
2004/7/1,18:00:00,,1,49.7,0,29.7,0,45.1,0,27.9,0,25.5,0
2004/7/1,18:15:00,,1,46.8,0,29.7,0,45.2,0,27.9,0,25.5,0
2004/7/1,18:30:00,,1,46.7,0,29.6,0,45.1,0,27.9,0,25.6,0
2004/7/1,18:45:00,,1,47,0,29.6,0,44.8,0,27.9,0,25.6,0
2004/7/1,19:00:00,,1,48.1,0,29.5,0,40,0,27.8,0,25.5,0
2004/7/1,19:15:00,,1,48.7,0,29.3,0,38.1,0,27.8,0,25.1,0
2004/7/1,19:30:00,,1,50.5,0,29.2,0,38.6,0,27.7,0,25.1,0
2004/7/1,19:45:00,,1,50.2,0,29,0,39.1,0,27.6,0,25.2,0
2004/7/1,20:00:00,,1,51.6,0,29.2,0,38.3,0,27.6,0,25.2,0
2004/7/1,20:15:00,,1,53.4,0,29.2,0,38.5,0,27.5,0,25.3,0
2004/7/1,20:30:00,,1,54.5,0,29.1,0,38.7,0,27.5,0,25.3,0
2004/7/1,20:45:00,,1,55.9,0,29.2,0,38.6,0,27.4,0,25.4,0
2004/7/1,21:00:00,,1,57.1,0,29,0,39.4,0,27.3,0,25.4,0
2004/7/1,21:15:00,,1,57.8,0,28.9,0,39.7,0,27.3,0,25.5,0
2004/7/1,21:30:00,,1,60.3,0,28.9,0,40.9,0,27.3,0,24.9,0
2004/7/1,21:45:00,,1,63.2,0,28.4,0,42,0,27.2,0,25,0
2004/7/1,22:00:00,,1,65,0,28.2,0,42.3,0,27.1,0,25,0
2004/7/1,22:15:00,,1,66.5,0,28.3,0,42.3,0,27.1,0,24.6,0
2004/7/1,22:30:00,,1,67.3,0,28.3,0,42.4,0,27.1,0,24.7,0
2004/7/1,22:45:00,,1,68.4,0,28.1,0,42.6,0,27,0,24.7,0
2004/7/1,23:00:00,,1,69.9,0,28,0,43.2,0,26.9,0,24.8,0
2004/7/1,23:15:00,,1,69.9,0,28.2,0,43,0,26.9,0,24.8,0
2004/7/1,23:30:00,,1,70.1,0,28.2,0,42.7,0,26.9,0,24.8,0
2004/7/1,23:45:00,,1,71.5,0,27.7,0,43.7,0,26.8,0,24.6,0
2004/7/2,0:00:00,,1,71.1,0,27.5,0,43.9,0,26.8,0,24.7,0
2004/7/2,0:15:00,,1,73,0,27.5,0,43.7,0,26.7,0,24.7,0
2004/7/2,0:30:00,,1,73.5,0,27.1,0,44.6,0,26.6,0,24.8,0
2004/7/2,0:45:00,,1,74.7,0,27.2,0,44.3,0,26.5,0,24.8,0
2004/7/2,1:00:00,,1,74.9,0,27.1,0,44.1,0,26.5,0,24.8,0
2004/7/2,1:15:00,,1,73.5,0,27,0,43,0,26.4,0,24.9,0
2004/7/2,1:30:00,,1,72.4,0,26.9,0,42.5,0,26.4,0,24.9,0
2004/7/2,1:45:00,,1,72.8,0,27.1,0,42.1,0,26.3,0,24.9,0
2004/7/2,2:00:00,,1,73.2,0,26.8,0,42.3,0,26.3,0,25,0
2004/7/2,2:15:00,,1,73.4,0,26.8,0,42,0,26.2,0,25,0
2004/7/2,2:30:00,,1,73.7,0,26.4,0,42.5,0,26.2,0,25,0
2004/7/2,2:45:00,,1,74.8,0,26.5,0,42.4,0,26.1,0,25,0
2004/7/2,3:00:00,,1,75.4,0,26.4,0,42.6,0,26,0,25.1,0
2004/7/2,3:15:00,,1,75.8,0,26.2,0,43.3,0,26,0,25.1,0
2004/7/2,3:30:00,,1,76.6,0,26.2,0,43.6,0,25.9,0,25.1,0
2004/7/2,3:45:00,,1,78.5,0,25.9,0,44.7,0,25.9,0,25.2,0
2004/7/2,4:00:00,,1,79.4,0,25.8,0,45.1,0,25.8,0,25.2,0
2004/7/2,4:15:00,,1,79.4,0,25.8,0,45.1,0,25.8,0,25.2,0
2004/7/2,4:30:00,,1,78.9,0,25.6,0,44.7,0,25.7,0,25.2,0
2004/7/2,4:45:00,,1,77.7,0,25.8,0,43.9,0,25.7,0,25.3,0
2004/7/2,5:00:00,,1,75.7,0,25.8,0,43.5,0,25.7,0,25.3,0
2004/7/2,5:15:00,,1,73.7,0,25.8,0,43.2,0,25.6,0,25.3,0
2004/7/2,5:30:00,,1,71.8,0,25.9,0,43,0,25.6,0,25.3,0
2004/7/2,5:45:00,,1,74.2,0,25.7,0,43.9,0,25.6,0,25.3,0
2004/7/2,6:00:00,,1,76.2,0,25.6,0,45.3,0,25.5,0,25.4,0
2004/7/2,6:15:00,,1,78.5,0,25.4,0,47.1,0,25.5,0,25.4,0
2004/7/2,6:30:00,,1,79.3,0,25.3,0,47.9,0,25.5,0,25.4,0
2004/7/2,6:45:00,,1,77.4,0,25.3,0,48.3,0,25.5,0,25.8,0
2004/7/2,7:00:00,,1,69.5,0,25.7,0,47.6,0,25.5,0,24.3,0
2004/7/2,7:15:00,,1,65.4,0,25.9,0,47.3,0,25.5,0,23.6,0
2004/7/2,7:30:00,,1,61.7,0,26,0,47,0,25.5,0,23.7,0
2004/7/2,7:45:00,,1,60.2,0,26.5,0,46.1,0,25.5,0,23.7,0
2004/7/2,8:00:00,,1,53.1,0,26.9,0,45.8,0,25.5,0,23.7,0
2004/7/2,8:15:00,,1,51.6,0,27.1,0,44.9,0,25.5,0,23.8,0
2004/7/2,8:30:00,,1,50.5,0,27.2,0,43.4,0,25.5,0,23.8,0
2004/7/2,8:45:00,,1,47.4,0,26.8,0,41.2,0,25.4,0,23.9,0
2004/7/2,9:00:00,,1,49.1,0,26.9,0,42.1,0,25.4,0,23.9,0
2004/7/2,9:15:00,,1,45.5,0,27.1,0,42.3,0,25.4,0,23.9,0
2004/7/2,9:30:00,,1,42.5,0,27,0,40.1,0,25.4,0,23.7,0
2004/7/2,9:45:00,,1,42.9,0,27.1,0,41.3,0,25.4,0,23.7,0
2004/7/2,10:00:00,,1,43.9,0,27.1,0,41.8,0,25.4,0,23.8,0
2004/7/2,10:15:00,,1,43.1,0,27.2,0,41,0,25.4,0,23.8,0
2004/7/2,10:30:00,,1,41.3,0,27.3,0,40.8,0,25.4,0,23.8,0
2004/7/2,10:45:00,,1,39.5,0,27.6,0,40.3,0,25.4,0,23.9,0
2004/7/2,11:00:00,,1,39.7,0,27.6,0,39.1,0,25.5,0,23.9,0
2004/7/2,11:15:00,,1,39.5,0,27.6,0,37.7,0,25.5,0,24,0
2004/7/2,11:30:00,,1,39.2,0,27.7,0,37.8,0,25.5,0,24,0
2004/7/2,11:45:00,,1,40,0,27.8,0,36.9,0,25.5,0,24.1,0
2004/7/2,12:00:00,,1,39.7,0,28,0,34.9,0,25.6,0,24,0
2004/7/2,12:15:00,,1,38.4,0,27.9,0,35.1,0,25.7,0,24,0
2004/7/2,12:30:00,,1,37.9,0,28.3,0,35.1,0,25.7,0,23.8,0
2004/7/2,12:45:00,,1,40.1,0,28.2,0,36.4,0,25.7,0,23.9,0
2004/7/2,13:00:00,,1,39.8,0,28.2,0,37,0,25.8,0,23.9,0
2004/7/2,13:15:00,,1,43.6,0,28.3,0,39,0,25.8,0,24,0
2004/7/2,13:30:00,,1,43.2,0,28.5,0,40,0,25.9,0,24,0
2004/7/2,13:45:00,,1,45.6,0,28.6,0,40.5,0,26,0,24.1,0
2004/7/2,14:00:00,,1,46.8,0,28.7,0,41,0,26,0,24.1,0
2004/7/2,14:15:00,,1,46.5,0,28.7,0,41.7,0,26.1,0,24.1,0
2004/7/2,14:30:00,,1,47.2,0,28.6,0,41.4,0,26.2,0,24,0
2004/7/2,14:45:00,,1,48,0,28.6,0,42.1,0,26.3,0,24,0
2004/7/2,15:00:00,,1,48.9,0,28.6,0,42.5,0,26.4,0,24,0
2004/7/2,15:15:00,,1,49.6,0,28.7,0,42.9,0,26.5,0,24.1,0
2004/7/2,15:30:00,,1,49.4,0,28.7,0,43.1,0,26.7,0,24.1,0
2004/7/2,15:45:00,,1,48.5,0,28.7,0,42.8,0,26.8,0,24.2,0
2004/7/2,16:00:00,,1,49.4,0,28.7,0,42.7,0,27,0,24.2,0
2004/7/2,16:15:00,,1,49.7,0,28.9,0,42.4,0,27.2,0,24.3,0
2004/7/2,16:30:00,,1,50.5,0,29,0,42.3,0,27.4,0,24.3,0
2004/7/2,16:45:00,,1,50.9,0,29.1,0,41.7,0,27.5,0,24.4,0
2004/7/2,17:00:00,,1,51.8,0,29.2,0,41.9,0,27.6,0,24.4,0
2004/7/2,17:15:00,,1,51.1,0,29.3,0,41.1,0,27.7,0,24.5,0
2004/7/2,17:30:00,,1,53.1,0,29.3,0,41.2,0,27.8,0,24.5,0
2004/7/2,17:45:00,,1,53.4,0,29.2,0,41.3,0,27.8,0,24.6,0
2004/7/2,18:00:00,,1,55.1,0,29.2,0,41,0,27.8,0,24.7,0
2004/7/2,18:15:00,,1,55.3,0,29.3,0,40.6,0,27.8,0,24.8,0
2004/7/2,18:30:00,,1,54.2,0,28.4,0,40.3,0,27.7,0,24.8,0
2004/7/2,18:45:00,,1,54.1,0,28.9,0,37.7,0,27.6,0,24.6,0
2004/7/2,19:00:00,,1,54.8,0,29.1,0,36.7,0,27.6,0,24.6,0
2004/7/2,19:15:00,,1,54.4,0,29.1,0,36.6,0,27.5,0,24.7,0
2004/7/2,19:30:00,,1,55.7,0,29.3,0,35.9,0,27.4,0,24.7,0
2004/7/2,19:45:00,,1,56.8,0,29.2,0,35.4,0,27.3,0,24.7,0
2004/7/2,20:00:00,,1,57.6,0,29,0,35.9,0,27.3,0,24.8,0
2004/7/2,20:15:00,,1,57,0,28.8,0,37.8,0,27.2,0,25,0
2004/7/2,20:30:00,,1,55.7,0,29,0,36.3,0,27.1,0,24.9,0
2004/7/2,20:45:00,,1,58.3,0,29,0,36.4,0,27,0,25,0
2004/7/2,21:00:00,,1,58.4,0,28.8,0,38.1,0,27,0,25,0
2004/7/2,21:15:00,,1,57.5,0,28.9,0,40.7,0,27,0,24.5,0
2004/7/2,21:30:00,,1,57.7,0,28.8,0,38.7,0,27,0,24.5,0
2004/7/2,21:45:00,,1,57.8,0,28.8,0,37.4,0,27,0,24.6,0
2004/7/2,22:00:00,,1,58.5,0,28.8,0,36.5,0,26.9,0,24.6,0
2004/7/2,22:15:00,,1,60,0,29,0,35.7,0,26.9,0,24.7,0
2004/7/2,22:30:00,,1,62.3,0,29,0,35.4,0,26.8,0,24.7,0
2004/7/2,22:45:00,,1,63.8,0,28.9,0,35.6,0,26.8,0,24.8,0
2004/7/2,23:00:00,,1,64.1,0,28.8,0,35.8,0,26.8,0,24.8,0
2004/7/2,23:15:00,,1,64.2,0,28.7,0,35.8,0,26.7,0,24.8,0
2004/7/2,23:30:00,,1,62.7,0,28.6,0,35.6,0,26.7,0,24.9,0
2004/7/2,23:45:00,,1,62.4,0,28.4,0,35.2,0,26.6,0,24.9,0
2004/7/3,0:00:00,,1,62,0,28.1,0,34.7,0,26.6,0,24.9,0
2004/7/3,0:15:00,,1,61.3,0,28.1,0,34.7,0,26.5,0,25,0
2004/7/3,0:30:00,,1,60.4,0,28,0,34.4,0,26.5,0,25,0
2004/7/3,0:45:00,,1,60.9,0,27.9,0,34.5,0,26.4,0,23.8,0
2004/7/3,1:00:00,,1,61.2,0,27.7,0,35.2,0,26.4,0,23.9,0
2004/7/3,1:15:00,,1,63.6,0,26.8,0,36.5,0,26.3,0,23.9,0
2004/7/3,1:30:00,,1,62.2,0,26.1,0,36.6,0,26.2,0,24,0
2004/7/3,1:45:00,,1,63.4,0,26,0,37.2,0,26.1,0,24,0
2004/7/3,2:00:00,,1,64.2,0,25.4,0,38.3,0,26,0,24.1,0
2004/7/3,2:15:00,,1,66.3,0,25.8,0,38.8,0,26,0,24.1,0
2004/7/3,2:30:00,,1,66.9,0,26.8,0,38.8,0,25.9,0,24.1,0
2004/7/3,2:45:00,,1,67.1,0,27.2,0,39.6,0,25.9,0,24.2,0
2004/7/3,3:00:00,,1,69.4,0,27.1,0,40.2,0,25.9,0,24.2,0
2004/7/3,3:15:00,,1,70.7,0,27.2,0,40.7,0,25.8,0,24.3,0
2004/7/3,3:30:00,,1,70.2,0,27.2,0,41.3,0,25.8,0,24.3,0
2004/7/3,3:45:00,,1,67.1,0,27.2,0,41.1,0,25.8,0,24.3,0
2004/7/3,4:00:00,,1,67.4,0,27.2,0,41.1,0,25.7,0,24.4,0
2004/7/3,4:15:00,,1,67.9,0,27.3,0,41.1,0,25.7,0,24.4,0
2004/7/3,4:30:00,,1,68.9,0,27.3,0,41.2,0,25.7,0,24.4,0
2004/7/3,4:45:00,,1,70.7,0,27.3,0,41.2,0,25.7,0,24.5,0
2004/7/3,5:00:00,,1,69.5,0,27.3,0,41.4,0,25.6,0,24.5,0
2004/7/3,5:15:00,,1,72,0,27.4,0,41.3,0,25.6,0,24.5,0
2004/7/3,5:30:00,,1,68.2,0,27.5,0,41.1,0,25.6,0,24.6,0
2004/7/3,5:45:00,,1,66.5,0,27.5,0,40.7,0,25.6,0,24.6,0
2004/7/3,6:00:00,,1,61.1,0,27.6,0,40.5,0,25.6,0,24.6,0
2004/7/3,6:15:00,,1,58.4,0,27.7,0,40.4,0,25.6,0,24.7,0
2004/7/3,6:30:00,,1,52.5,0,27.7,0,40.1,0,25.5,0,24.7,0
2004/7/3,6:45:00,,1,51.2,0,27.8,0,40.1,0,25.5,0,24.7,0
2004/7/3,7:00:00,,1,51.7,0,27.8,0,40.2,0,25.6,0,24.8,0
2004/7/3,7:15:00,,1,50.1,0,27.9,0,40.8,0,25.6,0,24.2,0
2004/7/3,7:30:00,,1,47.9,0,28,0,41.3,0,25.6,0,24,0
2004/7/3,7:45:00,,1,45.9,0,28,0,41.2,0,25.6,0,24,0
2004/7/3,8:00:00,,1,43.4,0,28,0,41.4,0,25.6,0,23.5,0
2004/7/3,8:15:00,,1,40.2,0,28.2,0,39.4,0,25.6,0,23.6,0
2004/7/3,8:30:00,,1,39.5,0,28.2,0,40.7,0,25.6,0,23.6,0
2004/7/3,8:45:00,,1,35.5,0,28.2,0,40.7,0,25.6,0,23.7,0
2004/7/3,9:00:00,,1,36.3,0,28.3,0,40.4,0,25.6,0,23.7,0
2004/7/3,9:15:00,,1,35.8,0,28.3,0,40.3,0,25.6,0,23.7,0
2004/7/3,9:30:00,,1,36.6,0,28.3,0,40.3,0,25.6,0,23.8,0
2004/7/3,9:45:00,,1,36.2,0,28.3,0,40.3,0,25.6,0,23.8,0
2004/7/3,10:00:00,,1,35.4,0,28.3,0,40.1,0,25.6,0,23.9,0
2004/7/3,10:15:00,,1,37.5,0,28.3,0,40.1,0,25.6,0,23.9,0
2004/7/3,10:30:00,,1,38.2,0,28.3,0,40.2,0,25.6,0,24,0
2004/7/3,10:45:00,,1,40.8,0,28.4,0,40.3,0,25.6,0,24,0
2004/7/3,11:00:00,,1,41.5,0,28.4,0,40.5,0,25.6,0,24.1,0
2004/7/3,11:15:00,,1,42.6,0,28.4,0,40.6,0,25.6,0,24.1,0
2004/7/3,11:30:00,,1,42,0,28.4,0,40.9,0,25.6,0,24.1,0
2004/7/3,11:45:00,,1,41,0,28.4,0,40.9,0,25.7,0,24.2,0
2004/7/3,12:00:00,,1,41.9,0,28.4,0,41,0,25.7,0,24.2,0
2004/7/3,12:15:00,,1,40,0,28.5,0,41,0,25.7,0,24.3,0
2004/7/3,12:30:00,,1,41.7,0,28.5,0,40.9,0,25.7,0,24.3,0
2004/7/3,12:45:00,,1,42.3,0,28.5,0,41.1,0,25.8,0,24.3,0
2004/7/3,13:00:00,,1,41.2,0,28.6,0,41.1,0,25.8,0,24.4,0
2004/7/3,13:15:00,,1,41,0,28.6,0,41.2,0,25.9,0,24.4,0
2004/7/3,13:30:00,,1,39.5,0,28.7,0,41.3,0,25.9,0,24.5,0
2004/7/3,13:45:00,,1,39.4,0,28.7,0,41.4,0,26,0,24.5,0
2004/7/3,14:00:00,,1,39.5,0,28.8,0,41.5,0,26,0,24.5,0
2004/7/3,14:15:00,,1,40.7,0,28.8,0,41.5,0,26.1,0,24.6,0
2004/7/3,14:30:00,,1,44.6,0,28.8,0,41.4,0,26.1,0,24.6,0
2004/7/3,14:45:00,,1,44.1,0,28.9,0,41.5,0,26.1,0,24.7,0
2004/7/3,15:00:00,,1,42.1,0,28.8,0,41.5,0,26.1,0,24.7,0
2004/7/3,15:15:00,,1,41.2,0,28.9,0,41.4,0,26.1,0,24.7,0
2004/7/3,15:30:00,,1,42.4,0,28.9,0,41.4,0,26.1,0,24.8,0
2004/7/3,15:45:00,,1,44.3,0,28.9,0,41.4,0,26.1,0,24.8,0
2004/7/3,16:00:00,,1,44.7,0,28.9,0,41.5,0,26.1,0,24.9,0
2004/7/3,16:15:00,,1,43.9,0,28.9,0,41.7,0,26.2,0,24.9,0
2004/7/3,16:30:00,,1,43.5,0,28.9,0,41.8,0,26.4,0,24.9,0
2004/7/3,16:45:00,,1,45.1,0,28.9,0,42,0,26.6,0,25,0
2004/7/3,17:00:00,,1,45.9,0,28.9,0,42.1,0,26.6,0,25,0
2004/7/3,17:15:00,,1,46.7,0,28.9,0,42.1,0,26.6,0,25.1,0
2004/7/3,17:30:00,,1,47,0,28.8,0,42.1,0,26.6,0,25.1,0
2004/7/3,17:45:00,,1,47.5,0,28.8,0,42,0,26.6,0,25.2,0
2004/7/3,18:00:00,,1,48.5,0,28.8,0,41.9,0,26.6,0,25.2,0
2004/7/3,18:15:00,,1,49.5,0,28.7,0,41.9,0,26.6,0,25.3,0
2004/7/3,18:30:00,,1,49.7,0,28.7,0,41.9,0,26.5,0,25.3,0
2004/7/3,18:45:00,,1,50.3,0,28.7,0,41.7,0,26.5,0,25.3,0
2004/7/3,19:00:00,,1,51.2,0,28.7,0,41.7,0,26.5,0,25.4,0
2004/7/3,19:15:00,,1,51.1,0,28.6,0,41.6,0,26.4,0,25.4,0
2004/7/3,19:30:00,,1,51.8,0,28.6,0,41.5,0,26.4,0,25.5,0
2004/7/3,19:45:00,,1,51.3,0,28.6,0,41.4,0,26.4,0,25.5,0
2004/7/3,20:00:00,,1,50.9,0,28.6,0,41.3,0,26.4,0,25.6,0
2004/7/3,20:15:00,,1,50.8,0,28.5,0,41.1,0,26.3,0,25.6,0
2004/7/3,20:30:00,,1,50.9,0,28.5,0,41,0,26.3,0,25.7,0
2004/7/3,20:45:00,,1,50.1,0,28.4,0,41.1,0,26.3,0,25.7,0
2004/7/3,21:00:00,,1,50.6,0,28.4,0,41.1,0,26.2,0,25.7,0
2004/7/3,21:15:00,,1,52.6,0,28.4,0,41.1,0,26.2,0,25.8,0
2004/7/3,21:30:00,,1,53.3,0,28.5,0,39.7,0,26.2,0,25.8,0
2004/7/3,21:45:00,,1,52.5,0,27.3,0,37.9,0,26.1,0,24.7,0
2004/7/3,22:00:00,,1,53.9,0,26.9,0,38.9,0,26.1,0,24.5,0
2004/7/3,22:15:00,,1,53,0,26.8,0,39.3,0,26,0,23.8,0
2004/7/3,22:30:00,,1,53.1,0,26.7,0,38.7,0,26,0,23.9,0
2004/7/3,22:45:00,,1,54,0,26.9,0,38.6,0,26,0,24,0
2004/7/3,23:00:00,,1,55.3,0,27.2,0,38.1,0,25.9,0,24,0
2004/7/3,23:15:00,,1,56.9,0,27.2,0,38.6,0,25.9,0,24.1,0
2004/7/3,23:30:00,,1,65.7,0,27.3,0,41.8,0,25.9,0,24.1,0
2004/7/3,23:45:00,,1,70.5,0,26.9,0,45.2,0,25.9,0,24.2,0
2004/7/4,0:00:00,,1,73.3,0,27.1,0,45.7,0,25.9,0,24.2,0
2004/7/4,0:15:00,,1,72.9,0,26.9,0,46.1,0,25.9,0,24.2,0
2004/7/4,0:30:00,,1,71.9,0,27,0,45.1,0,25.9,0,24.3,0
2004/7/4,0:45:00,,1,72.2,0,26.8,0,45.4,0,25.8,0,24.3,0
2004/7/4,1:00:00,,1,72.5,0,26.7,0,44.9,0,25.8,0,24.3,0
2004/7/4,1:15:00,,1,73.6,0,26.4,0,45.7,0,25.7,0,24.4,0
2004/7/4,1:30:00,,1,75.8,0,26.6,0,45.8,0,25.7,0,24.4,0
2004/7/4,1:45:00,,1,76.6,0,26.6,0,45.7,0,25.7,0,24.3,0
2004/7/4,2:00:00,,1,77.2,0,26.3,0,45.9,0,25.7,0,24.3,0
2004/7/4,2:15:00,,1,76.7,0,26.2,0,45.6,0,25.6,0,24.3,0
2004/7/4,2:30:00,,1,76,0,26.5,0,45.1,0,25.6,0,23.7,0
2004/7/4,2:45:00,,1,76.6,0,26.9,0,44.5,0,25.5,0,23.8,0
2004/7/4,3:00:00,,1,77.9,0,27.1,0,45.4,0,25.5,0,23.4,0
2004/7/4,3:15:00,,1,78.4,0,27.1,0,46.3,0,25.4,0,23.4,0
2004/7/4,3:30:00,,1,80.1,0,27.1,0,45.7,0,25.4,0,23.5,0
2004/7/4,3:45:00,,1,78.7,0,27.2,0,45.5,0,25.4,0,23.5,0
2004/7/4,4:00:00,,1,76.3,0,27.2,0,44.7,0,25.4,0,23.6,0
2004/7/4,4:15:00,,1,75.7,0,27.1,0,44.3,0,25.4,0,23.6,0
2004/7/4,4:30:00,,1,73.8,0,27.1,0,44,0,25.4,0,23.6,0
2004/7/4,4:45:00,,1,74.1,0,27.2,0,43.9,0,25.4,0,23.7,0
2004/7/4,5:00:00,,1,73.4,0,27.2,0,44,0,25.3,0,23.7,0
2004/7/4,5:15:00,,1,72.1,0,27.3,0,44,0,25.3,0,23.7,0
2004/7/4,5:30:00,,1,74.7,0,27.4,0,44.3,0,25.3,0,23.8,0
2004/7/4,5:45:00,,1,72.3,0,27.5,0,44.4,0,25.3,0,23.8,0
2004/7/4,6:00:00,,1,71.1,0,27.5,0,44.3,0,25.3,0,23.9,0
2004/7/4,6:15:00,,1,68.9,0,27.6,0,44.5,0,25.3,0,23.9,0
2004/7/4,6:30:00,,1,65.3,0,27.7,0,44.3,0,25.3,0,23.9,0
2004/7/4,6:45:00,,1,63,0,27.8,0,44.4,0,25.3,0,24,0
2004/7/4,7:00:00,,1,60.3,0,27.8,0,43.9,0,25.4,0,24,0
2004/7/4,7:15:00,,1,58.3,0,27.8,0,43.5,0,25.4,0,24,0
2004/7/4,7:30:00,,1,55.6,0,27.9,0,43.1,0,25.4,0,23.4,0
2004/7/4,7:45:00,,1,53.2,0,27.9,0,42.6,0,25.4,0,23.4,0
2004/7/4,8:00:00,,1,51.9,0,27.9,0,42.6,0,25.4,0,23.4,0
2004/7/4,8:15:00,,1,51.2,0,28,0,42.6,0,25.4,0,23.5,0
2004/7/4,8:30:00,,1,51.3,0,28.1,0,42.7,0,25.4,0,23.5,0
2004/7/4,8:45:00,,1,50.3,0,28.1,0,42.9,0,25.4,0,23.6,0
2004/7/4,9:00:00,,1,51.3,0,28.2,0,43.4,0,25.4,0,23.6,0
2004/7/4,9:15:00,,1,49.6,0,28.4,0,43.4,0,25.4,0,23.6,0
2004/7/4,9:30:00,,1,48,0,28.3,0,46.2,0,25.4,0,23.5,0
2004/7/4,9:45:00,,1,47.6,0,28.6,0,45.3,0,25.4,0,23.5,0
2004/7/4,10:00:00,,1,49.2,0,28.7,0,45.1,0,25.4,0,23.6,0
2004/7/4,10:15:00,,1,53,0,28.7,0,46.4,0,25.4,0,23.6,0
2004/7/4,10:30:00,,1,52.8,0,28.9,0,47.1,0,25.5,0,23.4,0
2004/7/4,10:45:00,,1,52.5,0,29.2,0,46.9,0,25.5,0,23.4,0
2004/7/4,11:00:00,,1,51.6,0,29.2,0,47.6,0,25.5,0,23.5,0
2004/7/4,11:15:00,,1,49.2,0,29.2,0,47.7,0,25.6,0,23.4,0
2004/7/4,11:30:00,,1,47.5,0,29,0,47.7,0,25.7,0,23.5,0
2004/7/4,11:45:00,,1,47,0,29,0,47.4,0,25.7,0,23.5,0
2004/7/4,12:00:00,,1,47.5,0,29,0,47,0,25.7,0,23.6,0
2004/7/4,12:15:00,,1,46.9,0,29,0,46.9,0,25.8,0,23.6,0
2004/7/4,12:30:00,,1,46.7,0,29,0,46.9,0,25.8,0,23.7,0
2004/7/4,12:45:00,,1,45.9,0,29,0,47,0,25.9,0,23.7,0
2004/7/4,13:00:00,,1,46.5,0,29,0,46.9,0,25.9,0,23.8,0
2004/7/4,13:15:00,,1,45.5,0,29,0,47.1,0,26,0,23.8,0
2004/7/4,13:30:00,,1,46.3,0,29.1,0,47.3,0,26,0,23.9,0
2004/7/4,13:45:00,,1,45,0,29.1,0,47.4,0,26.1,0,23.9,0
2004/7/4,14:00:00,,1,46.2,0,29.1,0,47.5,0,26.1,0,24,0
2004/7/4,14:15:00,,1,46.5,0,29.1,0,47.6,0,26.2,0,24,0
2004/7/4,14:30:00,,1,48.5,0,29.2,0,47.6,0,26.2,0,24.1,0
2004/7/4,14:45:00,,1,48.6,0,29.2,0,47.8,0,26.3,0,24.1,0
2004/7/4,15:00:00,,1,50,0,29.3,0,47.9,0,26.4,0,24.2,0
2004/7/4,15:15:00,,1,51,0,29.3,0,48.1,0,26.5,0,24.2,0
2004/7/4,15:30:00,,1,52.3,0,29.4,0,48.1,0,26.6,0,24.3,0
2004/7/4,15:45:00,,1,50.2,0,29.5,0,48.1,0,26.7,0,24.3,0
2004/7/4,16:00:00,,1,51.2,0,29.5,0,48.1,0,26.8,0,24.4,0
2004/7/4,16:15:00,,1,51,0,29.5,0,48.1,0,26.9,0,24.4,0
2004/7/4,16:30:00,,1,51.8,0,29.6,0,48,0,27.1,0,24.5,0
2004/7/4,16:45:00,,1,51.8,0,29.6,0,48,0,27.2,0,24.5,0
2004/7/4,17:00:00,,1,52.5,0,30.3,0,46.4,0,27.3,0,24.6,0
2004/7/4,17:15:00,,1,52.9,0,30.3,0,46.3,0,27.4,0,24.6,0
2004/7/4,17:30:00,,1,53.6,0,30.4,0,46.1,0,27.5,0,24.7,0
2004/7/4,17:45:00,,1,53.1,0,30.5,0,45.6,0,27.5,0,24.7,0
2004/7/4,18:00:00,,1,53.3,0,30.3,0,45.4,0,27.6,0,24.8,0
2004/7/4,18:15:00,,1,57.3,0,29.9,0,48.1,0,27.6,0,25,0
2004/7/4,18:30:00,,1,59.4,0,29.8,0,49,0,27.6,0,25.1,0
2004/7/4,18:45:00,,1,61.1,0,29,0,51.8,0,27.6,0,25.2,0
2004/7/4,19:00:00,,1,61,0,29,0,50.9,0,27.5,0,25.2,0
2004/7/4,19:15:00,,1,61.5,0,28.7,0,51.4,0,27.5,0,25.3,0
2004/7/4,19:30:00,,1,61.9,0,28.6,0,51.7,0,27.5,0,25.3,0
2004/7/4,19:45:00,,1,62,0,28.4,0,51.4,0,27.4,0,25.4,0
2004/7/4,20:00:00,,1,62.8,0,28.2,0,51.5,0,27.4,0,25.3,0
2004/7/4,20:15:00,,1,63.7,0,28.1,0,51.8,0,27.3,0,25.4,0
2004/7/4,20:30:00,,1,64.1,0,27.9,0,51.9,0,27.3,0,25.4,0
2004/7/4,20:45:00,,1,64.7,0,27.8,0,52.1,0,27.3,0,25.5,0
2004/7/4,21:00:00,,1,65,0,28.3,0,51.1,0,27.2,0,25.5,0
2004/7/4,21:15:00,,1,65.2,0,28.4,0,50.9,0,27.2,0,25.6,0
2004/7/4,21:30:00,,1,65.6,0,28.5,0,50.4,0,27.1,0,25.6,0
2004/7/4,21:45:00,,1,66.2,0,28.5,0,50.4,0,27.1,0,25.7,0
2004/7/4,22:00:00,,1,67.8,0,28.6,0,51,0,27.1,0,25.4,0
2004/7/4,22:15:00,,1,69.6,0,28.7,0,51,0,27.1,0,25.5,0
2004/7/4,22:30:00,,1,70.3,0,28.7,0,50.9,0,27.1,0,25.5,0
2004/7/4,22:45:00,,1,71.8,0,28.7,0,51.2,0,27,0,25.5,0
2004/7/4,23:00:00,,1,72.7,0,28.8,0,50.8,0,27,0,25.2,0
2004/7/4,23:15:00,,1,73.5,0,28.7,0,50.8,0,27,0,25.3,0
2004/7/4,23:30:00,,1,74.7,0,28.7,0,51.3,0,26.9,0,25.3,0
2004/7/4,23:45:00,,1,75.1,0,28.7,0,51.4,0,26.9,0,25.4,0
2004/7/5,0:00:00,,1,77.3,0,28.2,0,53.8,0,26.9,0,25.4,0
2004/7/5,0:15:00,,1,78.1,0,28,0,55,0,26.9,0,25.5,0
2004/7/5,0:30:00,,1,79.3,0,27.8,0,56.3,0,26.9,0,25.5,0
2004/7/5,0:45:00,,1,79.9,0,27.8,0,56.7,0,26.8,0,25.5,0
2004/7/5,1:00:00,,1,80.4,0,27.4,0,59,0,26.8,0,25.2,0
2004/7/5,1:15:00,,1,81.5,0,27.8,0,57.7,0,26.8,0,24.8,0
2004/7/5,1:30:00,,1,82.3,0,28.1,0,56.9,0,26.7,0,24.9,0
2004/7/5,1:45:00,,1,82.9,0,28.3,0,56.6,0,26.7,0,24.9,0
2004/7/5,2:00:00,,1,83.7,0,28.5,0,56.8,0,26.7,0,25,0
2004/7/5,2:15:00,,1,84,0,28.6,0,57.8,0,26.7,0,25,0
2004/7/5,2:30:00,,1,84.7,0,28.6,0,58.4,0,26.7,0,25.1,0
2004/7/5,2:45:00,,1,84.9,0,28.7,0,57.9,0,26.7,0,25.1,0
2004/7/5,3:00:00,,1,85.3,0,28.7,0,57.4,0,26.7,0,25.2,0
2004/7/5,3:15:00,,1,85.4,0,28.7,0,57.1,0,26.7,0,25.2,0
2004/7/5,3:30:00,,1,85.8,0,28.8,0,56.7,0,26.6,0,25.3,0
2004/7/5,3:45:00,,1,86.5,0,28.8,0,56.8,0,26.6,0,25.3,0
2004/7/5,4:00:00,,1,87.1,0,28.8,0,56.8,0,26.6,0,25.4,0
2004/7/5,4:15:00,,1,87,0,28.8,0,56.6,0,26.6,0,25.4,0
2004/7/5,4:30:00,,1,87.2,0,28.8,0,56.6,0,26.6,0,25.4,0
2004/7/5,4:45:00,,1,87.1,0,28.8,0,56.6,0,26.6,0,25.5,0
2004/7/5,5:00:00,,1,87,0,28.8,0,56.5,0,26.6,0,25.5,0
2004/7/5,5:15:00,,1,87.3,0,28.8,0,56.4,0,26.6,0,25.6,0
2004/7/5,5:30:00,,1,87.3,0,28.5,0,58.2,0,26.6,0,25.2,0
2004/7/5,5:45:00,,1,87.5,0,28.4,0,58.6,0,26.6,0,25,0
2004/7/5,6:00:00,,1,87.7,0,28.4,0,57.8,0,26.6,0,25.1,0
2004/7/5,6:15:00,,1,87.6,0,28.4,0,57.7,0,26.6,0,25.1,0
2004/7/5,6:30:00,,1,86.8,0,28.4,0,57.8,0,26.6,0,25.2,0
2004/7/5,6:45:00,,1,86.3,0,28.4,0,57.9,0,26.6,0,25.2,0
2004/7/5,7:00:00,,1,86.4,0,28.4,0,57.9,0,26.6,0,25.3,0
2004/7/5,7:15:00,,1,86.4,0,28.4,0,58,0,26.6,0,25.3,0
2004/7/5,7:30:00,,1,86.1,0,28.1,0,60.6,0,26.6,0,25.4,0
2004/7/5,7:45:00,,1,86.5,0,28.2,0,61.3,0,26.6,0,25.4,0
2004/7/5,8:00:00,,1,86,0,28.2,0,61.6,0,26.7,0,25.4,0
2004/7/5,8:15:00,,1,86.1,0,27.9,0,62.7,0,26.6,0,25.5,0
2004/7/5,8:30:00,,1,85.2,0,28,0,62.7,0,26.6,0,25.5,0
2004/7/5,8:45:00,,1,83.8,0,27.8,0,63.9,0,26.6,0,25.5,0
2004/7/5,9:00:00,,1,84.9,0,27.7,0,64.3,0,26.6,0,25.6,0
2004/7/5,9:15:00,,1,85.5,0,27.8,0,64,0,26.6,0,25.6,0
2004/7/5,9:30:00,,1,86.2,0,27.3,0,66.1,0,26.6,0,25.7,0
2004/7/5,9:45:00,,1,84.3,0,27.5,0,65.4,0,26.6,0,25.7,0
2004/7/5,10:00:00,,1,81.6,0,27.7,0,64.1,0,26.6,0,25.7,0
2004/7/5,10:15:00,,1,79,0,28,0,63.5,0,26.6,0,25.8,0
2004/7/5,10:30:00,,1,74.3,0,28.3,0,62.1,0,26.6,0,25.8,0
2004/7/5,10:45:00,,1,73.7,0,28.2,0,62.6,0,26.6,0,25.9,0
2004/7/5,11:00:00,,1,73.6,0,28.3,0,63,0,26.6,0,25.9,0